Location: Brantley
(31.5822°N, 86.2569°W)
Time: 20:15:02
(UTC+00:00)

Injun/Solrad 3 - Pass Details

Date: 22 February 2026
Orbit: 872 x 984 km, 66.8° (Epoch: 8 March)

Event Time Altitude Azimuth Distance (km) Brightness Sun altitude
Rises 00:02:00 0° 351° (N) 3,590 11.0 -6.1°
Reaches altitude 10° 00:05:24 10° 10° (N) 2,665 10.1 -6.8°
Maximum altitude 00:09:36 18° 52° (NE) 2,137 9.3 -7.7°
Drops below altitude 10° 00:13:50 10° 95° (E) 2,705 9.7 -8.6°
Enters shadow 00:14:04 - 97° (E) 2,764 9.7 -8.6°
Sets 00:17:17 0° 113° (ESE) 3,663 - -9.3°
